Regional Weather Roundup
Issued by NWS

Home | Current Version | Previous Version | Text Only | Print | Product List | Glossary On
Versions: 1 2 3 4 5 6 7 8 9 10 11 12 13 14 15 16 17 18 19 20 21 22 23 24 25 26 27 28 29 30 31 32 33 34 35 36 37 38 39 40 41 42 43 44 45 46 47 48 49 50
000
ASUS44 KOUN 280300
RWROK

WEATHER ROUNDUP FOR OKLAHOMA
NATIONAL WEATHER SERVICE NORMAN OK
1000 PM CDT SAT AUG 27 2016

NOTE: "FAIR" INDICATES FEW OR NO CLOUDS BELOW 12,000 FEET WITH NO
      SIGNIFICANT WEATHER AND/OR OBSTRUCTIONS TO VISIBILITY.

OKZ001>007-009>012-014-015-017-280400-
NORTHWEST OKLAHOMA AND THE PANHANDLE

CITY           SKY/WX    TMP DP  RH WIND       PRES   REMARKS
GAGE           LGT RAIN  68  63  84 SE15      30.08F
GUYMON         CLEAR     69  62  78 S9        30.04R
$$

OKZ016-021>023-033>039-044-045-280400-
SOUTHWEST OKLAHOMA

CITY           SKY/WX    TMP DP  RH WIND       PRES   REMARKS
LAWTON/REGL    CLOUDY    75  66  73 W6        30.01R
LAWTON/FT SILL CLOUDY    76  67  75 NE6       30.01R
FREDERICK      MOCLDY    73  67  81 CALM      29.99R
CLINTON        CLEAR     77  67  71 S9        30.08R
HOBART         PTCLDY    75  67  76 S8        30.04R
$$

OKZ018>020-024>031-280400-
CENTRAL OKLAHOMA

CITY           SKY/WX    TMP DP  RH WIND       PRES   REMARKS
OKLAHOMA CITY  CLOUDY    77  68  73 CALM      30.03R
OKC/WILEY POST CLOUDY    78  69  73 S6        30.03R
OKC/TINKER AFB CLOUDY    78  67  69 SE5       30.02R
STILLWATER     PTCLDY    79  68  69 SE6       30.02R
GUTHRIE        PTCLDY    80  70  71 SE5       30.01R
$$

OKZ008-013-054>072-280400-
NORTHEAST OKLAHOMA

CITY           SKY/WX    TMP DP  RH WIND       PRES   REMARKS
TULSA          PTCLDY    83  73  72 SE8       30.01R
TULSA/JONES    PTCLDY    83  74  74 S7        30.02R
PONCA CITY     CLEAR     80  68  66 SE7       30.01R
BARTLESVILLE   MOCLDY    80  69  69 SE6       30.03R
MUSKOGEE       CLOUDY    77  72  84 SE3       30.04R
$$

OKZ032-040>043-046>053-073>077-280400-
SOUTH CENTRAL/SOUTHEAST OKLAHOMA

CITY           SKY/WX    TMP DP  RH WIND       PRES   REMARKS
MCALESTER      CLOUDY    78  71  79 E5        30.04R
$$





USA.gov is the U.S. government's official web portal to all federal, state and local government web resources and services.